Regional Weather Roundup
Issued by NWS

Home | Current Version | Previous Version | Text Only | Print | Product List | Glossary On
Versions: 1 2 3 4 5 6 7 8 9 10 11 12 13 14 15 16 17 18 19 20 21 22 23 24 25 26 27 28 29 30 31 32 33 34 35 36 37 38 39 40 41 42 43 44 45 46 47 48 49 50
126
ASUS42 KKEY 220410
RWRKEY

FLORIDA REGIONAL WEATHER ROUNDUP FOR THE FLORIDA KEYS
NATIONAL WEATHER SERVICE KEY WEST FLORIDA
1100 PM EST SUN JAN 21 2018

...SOUTH FLORIDA AND THE KEYS...

CITY           SKY/WX    TMP DP  RH WIND       PRES   REMARKS
FORT MYERS     FAIR      67  64  90 E7        30.14S
SW REGIONAL AP FAIR      64  64 100 E7        30.14S
NAPLES         FAIR      65  64  97 NE6       30.13S
MIAMI          FAIR      73  66  78 E10       30.14S
WEST KENDALL   FAIR      69  64  84 E9        30.14R
HOMESTEAD      FAIR      71  71 100 E9        30.13S
MARATHON       FAIR      72  66  81 E10       30.11S
KEY WEST INTL  FAIR      70  67  90 E10       30.10F

...INTERNATIONAL WEATHER...

CITY           SKY/WX    TMP DP  RH WIND       PRES   REMARKS
NASSAU BAHAMAS MOCLDY    73  66  78 E6        30.16R
CANCUN MEXICO  PTCLDY    75  75 100 E9        30.01R
COZUMEL MEXICO PTCLDY    73  73 100 CALM      29.96F

ADJACENT COASTAL WATERS...

STATION/POSITION TIME  SKY/WX   TEMP    WIND        PRES    WAVE
                                AIR SEA DIR/SP/G            HT/PER
                 (UTC)          (F)     (DEG/KT/KT) (MB)    (FT/S)
PULASKI SHOAL LI 0400            70      90/ 17/ 19 1019.0R
SAND KEY         0350            69                 1019.6S
LONG KEY         0200            67      70/  9/ 10   N/A
MOLASSES REEF    0400            74 71   70/ 15/ 18 1020.1R
FOWEY ROCKS      0400            74 73   90/ 22/ 24 1020.8R
Buoy 42097       0330               72                N/A     2/ 4

$$




USA.gov is the U.S. government's official web portal to all federal, state and local government web resources and services.